Year,Month,Day,Hour,Minute,Value (Times are PST for temperature in C)
2015,07,18,00,00,19.30
2015,07,18,00,01,19.30
2015,07,18,00,02,19.30
2015,07,18,00,03,19.30
2015,07,18,00,04,19.30
2015,07,18,00,05,19.30
2015,07,18,00,06,19.30
2015,07,18,00,07,19.30
2015,07,18,00,08,19.20
2015,07,18,00,09,19.20
2015,07,18,00,10,19.20
2015,07,18,00,11,19.20
2015,07,18,00,12,19.20
2015,07,18,00,13,19.20
2015,07,18,00,14,19.20
2015,07,18,00,15,19.20
2015,07,18,00,16,19.10
2015,07,18,00,17,19.10
2015,07,18,00,18,19.10
2015,07,18,00,19,19.10
2015,07,18,00,20,19.10
2015,07,18,00,21,19.10
2015,07,18,00,22,19.10
2015,07,18,00,23,19.10
2015,07,18,00,24,19.10
2015,07,18,00,25,19.10
2015,07,18,00,26,19.10
2015,07,18,00,27,19.10
2015,07,18,00,28,19.10
2015,07,18,00,29,19.10
2015,07,18,00,30,19.10
2015,07,18,00,31,19.10
2015,07,18,00,32,19.10
2015,07,18,00,33,19.10
2015,07,18,00,34,19.10
2015,07,18,00,35,19.10
2015,07,18,00,36,19.10
2015,07,18,00,37,19.10
2015,07,18,00,38,19.10
2015,07,18,00,39,19.10
2015,07,18,00,40,19.10
2015,07,18,00,41,19.10
2015,07,18,00,42,19.10
2015,07,18,00,43,19.10
2015,07,18,00,44,19.10
2015,07,18,00,45,19.10
2015,07,18,00,46,19.00
2015,07,18,00,47,19.00
2015,07,18,00,48,19.00
2015,07,18,00,49,18.90
2015,07,18,00,50,18.90
2015,07,18,00,51,18.90
2015,07,18,00,52,18.90
2015,07,18,00,53,18.90
2015,07,18,00,54,18.80
2015,07,18,00,55,18.80
2015,07,18,00,56,18.80
2015,07,18,00,57,18.80
2015,07,18,00,58,18.80
2015,07,18,00,59,18.80
2015,07,18,01,00,18.80
2015,07,18,01,01,18.80
2015,07,18,01,02,18.80
2015,07,18,01,03,18.80
2015,07,18,01,04,18.80
2015,07,18,01,05,18.80
2015,07,18,01,06,18.80
2015,07,18,01,07,18.80
2015,07,18,01,08,18.80
2015,07,18,01,09,18.80
2015,07,18,01,10,18.80
2015,07,18,01,11,18.70
2015,07,18,01,12,18.70
2015,07,18,01,13,18.70
2015,07,18,01,14,18.70
2015,07,18,01,15,18.70
2015,07,18,01,16,18.60
2015,07,18,01,17,18.60
2015,07,18,01,18,18.60
2015,07,18,01,19,18.50
2015,07,18,01,20,18.50
2015,07,18,01,21,18.50
2015,07,18,01,22,18.60
2015,07,18,01,23,18.60
2015,07,18,01,24,18.60
2015,07,18,01,25,18.60
2015,07,18,01,26,18.60
2015,07,18,01,27,18.70
2015,07,18,01,28,18.70
2015,07,18,01,29,18.70
2015,07,18,01,30,18.70
2015,07,18,01,31,18.70
2015,07,18,01,32,18.70
2015,07,18,01,33,18.70
2015,07,18,01,34,18.70
2015,07,18,01,35,18.70
2015,07,18,01,36,18.70
2015,07,18,01,37,18.70
2015,07,18,01,38,18.70
2015,07,18,01,39,18.70
2015,07,18,01,40,18.70
2015,07,18,01,41,18.70
2015,07,18,01,42,18.70
2015,07,18,01,43,18.70
2015,07,18,01,44,18.70
2015,07,18,01,45,18.70
2015,07,18,01,46,18.70
2015,07,18,01,47,18.70
2015,07,18,01,48,18.70
2015,07,18,01,49,18.70
2015,07,18,01,50,18.70
2015,07,18,01,51,18.70
2015,07,18,01,52,18.70
2015,07,18,01,53,18.70
2015,07,18,01,54,18.60
2015,07,18,01,55,18.60
2015,07,18,01,56,18.60
2015,07,18,01,57,18.60
2015,07,18,01,58,18.60
2015,07,18,01,59,18.60
2015,07,18,02,00,18.60
2015,07,18,02,01,18.60
2015,07,18,02,02,18.60
2015,07,18,02,03,18.60
2015,07,18,02,04,18.50
2015,07,18,02,05,18.50
2015,07,18,02,06,18.50
2015,07,18,02,07,18.50
2015,07,18,02,08,18.50
2015,07,18,02,09,18.50
2015,07,18,02,10,18.50
2015,07,18,02,11,18.50
2015,07,18,02,12,18.50
2015,07,18,02,13,18.50
2015,07,18,02,14,18.40
2015,07,18,02,15,18.40
2015,07,18,02,16,18.40
2015,07,18,02,17,18.40
2015,07,18,02,18,18.40
2015,07,18,02,19,18.40
2015,07,18,02,20,18.40
2015,07,18,02,21,18.40
2015,07,18,02,22,18.40
2015,07,18,02,23,18.40
2015,07,18,02,24,18.40
2015,07,18,02,25,18.40
2015,07,18,02,26,18.40
2015,07,18,02,27,18.40
2015,07,18,02,28,18.40
2015,07,18,02,29,18.40
2015,07,18,02,30,18.40
2015,07,18,02,31,18.40
2015,07,18,02,32,18.40
2015,07,18,02,33,18.40
2015,07,18,02,34,18.40
2015,07,18,02,35,18.40
2015,07,18,02,36,18.30
2015,07,18,02,37,18.30
2015,07,18,02,38,18.30
2015,07,18,02,39,18.30
2015,07,18,02,40,18.30
2015,07,18,02,41,18.30
2015,07,18,02,42,18.30
2015,07,18,02,43,18.30
2015,07,18,02,44,18.30
2015,07,18,02,45,18.30
2015,07,18,02,46,18.30
2015,07,18,02,47,18.30
2015,07,18,02,48,18.30
2015,07,18,02,49,18.30
2015,07,18,02,50,18.30
2015,07,18,02,51,18.20
2015,07,18,02,52,18.20
2015,07,18,02,53,18.20
2015,07,18,02,54,18.20
2015,07,18,02,55,18.20
2015,07,18,02,56,18.20
2015,07,18,02,57,18.20
2015,07,18,02,58,18.20
2015,07,18,02,59,18.20
2015,07,18,03,00,18.20
2015,07,18,03,01,18.20
2015,07,18,03,02,18.20
2015,07,18,03,03,18.20
2015,07,18,03,04,18.20
2015,07,18,03,05,18.20
2015,07,18,03,06,18.20
2015,07,18,03,07,18.20
2015,07,18,03,08,18.20
2015,07,18,03,09,18.20
2015,07,18,03,10,18.20
2015,07,18,03,11,18.20
2015,07,18,03,12,18.20
2015,07,18,03,13,18.20
2015,07,18,03,14,18.20
2015,07,18,03,15,18.10
2015,07,18,03,16,18.10
2015,07,18,03,17,18.10
2015,07,18,03,18,18.10
2015,07,18,03,19,18.10
2015,07,18,03,20,18.10
2015,07,18,03,21,18.10
2015,07,18,03,22,18.10
2015,07,18,03,23,18.10
2015,07,18,03,24,18.10
2015,07,18,03,25,18.20
2015,07,18,03,26,18.20
2015,07,18,03,27,18.20
2015,07,18,03,28,18.20
2015,07,18,03,29,18.20
2015,07,18,03,30,18.20
2015,07,18,03,31,18.20
2015,07,18,03,32,18.20
2015,07,18,03,33,18.20
2015,07,18,03,34,18.10
2015,07,18,03,35,18.10
2015,07,18,03,36,18.10
2015,07,18,03,37,18.10
2015,07,18,03,38,18.10
2015,07,18,03,39,18.10
2015,07,18,03,40,18.10
2015,07,18,03,41,18.10
2015,07,18,03,42,18.10
2015,07,18,03,43,18.10
2015,07,18,03,44,18.10
2015,07,18,03,45,18.10
2015,07,18,03,46,18.10
2015,07,18,03,47,18.10
2015,07,18,03,48,18.10
2015,07,18,03,49,18.10
2015,07,18,03,50,18.00
2015,07,18,03,51,18.00
2015,07,18,03,52,18.00
2015,07,18,03,53,18.00
2015,07,18,03,54,18.00
2015,07,18,03,55,18.00
2015,07,18,03,56,18.00
2015,07,18,03,57,18.00
2015,07,18,03,58,18.00
2015,07,18,03,59,18.00
2015,07,18,04,00,18.00
2015,07,18,04,01,18.00
2015,07,18,04,02,18.00
2015,07,18,04,03,18.00
2015,07,18,04,04,18.00
2015,07,18,04,05,18.00
2015,07,18,04,06,18.00
2015,07,18,04,07,18.00
2015,07,18,04,08,18.00
2015,07,18,04,09,18.00
2015,07,18,04,10,18.00
2015,07,18,04,11,18.00
2015,07,18,04,12,18.00
2015,07,18,04,13,18.00
2015,07,18,04,14,18.00
2015,07,18,04,15,17.90
2015,07,18,04,16,17.90
2015,07,18,04,17,17.90
2015,07,18,04,18,17.90
2015,07,18,04,19,17.90
2015,07,18,04,20,17.90
2015,07,18,04,21,17.90
2015,07,18,04,22,17.90
2015,07,18,04,23,17.90
2015,07,18,04,24,17.90
2015,07,18,04,25,17.80
2015,07,18,04,26,17.80
2015,07,18,04,27,17.80
2015,07,18,04,28,17.80
2015,07,18,04,29,17.80
2015,07,18,04,30,17.80
2015,07,18,04,31,17.80
2015,07,18,04,32,17.80
2015,07,18,04,33,17.80
2015,07,18,04,34,17.80
2015,07,18,04,35,17.80
2015,07,18,04,36,17.80
2015,07,18,04,37,17.80
2015,07,18,04,38,17.70
2015,07,18,04,39,17.70
2015,07,18,04,40,17.70
2015,07,18,04,41,17.70
2015,07,18,04,42,17.70
2015,07,18,04,43,17.70
2015,07,18,04,44,17.70
2015,07,18,04,45,17.70
2015,07,18,04,46,17.70
2015,07,18,04,47,17.70
2015,07,18,04,48,17.70
2015,07,18,04,49,17.70
2015,07,18,04,50,17.70
2015,07,18,04,51,17.70
2015,07,18,04,52,17.70
2015,07,18,04,53,17.70
2015,07,18,04,54,17.80
2015,07,18,04,55,17.70
2015,07,18,04,56,17.80
2015,07,18,04,57,17.80
2015,07,18,04,58,17.80
2015,07,18,04,59,17.70
2015,07,18,05,00,17.70
2015,07,18,05,01,17.70
2015,07,18,05,02,17.70
2015,07,18,05,03,17.70
2015,07,18,05,04,17.70
2015,07,18,05,05,17.70
2015,07,18,05,06,17.70
2015,07,18,05,07,17.70
2015,07,18,05,08,17.70
2015,07,18,05,09,17.70
2015,07,18,05,10,17.70
2015,07,18,05,11,17.70
2015,07,18,05,12,17.70
2015,07,18,05,13,17.70
2015,07,18,05,14,17.70
2015,07,18,05,15,17.70
2015,07,18,05,16,17.70
2015,07,18,05,17,17.70
2015,07,18,05,18,17.70
2015,07,18,05,19,17.70
2015,07,18,05,20,17.70
2015,07,18,05,21,17.70
2015,07,18,05,22,17.70
2015,07,18,05,23,17.60
2015,07,18,05,24,17.60
2015,07,18,05,25,17.60
2015,07,18,05,26,17.60
2015,07,18,05,27,17.60
2015,07,18,05,28,17.60
2015,07,18,05,29,17.60
2015,07,18,05,30,17.60
2015,07,18,05,31,17.60
2015,07,18,05,32,17.60
2015,07,18,05,33,17.60
2015,07,18,05,34,17.60
2015,07,18,05,35,17.60
2015,07,18,05,36,17.60
2015,07,18,05,37,17.60
2015,07,18,05,38,17.60
2015,07,18,05,39,17.60
2015,07,18,05,40,17.60
2015,07,18,05,41,17.60
2015,07,18,05,42,17.60
2015,07,18,05,43,17.60
2015,07,18,05,44,17.50
2015,07,18,05,45,17.50
2015,07,18,05,46,17.50
2015,07,18,05,47,17.50
2015,07,18,05,48,17.50
2015,07,18,05,49,17.50
2015,07,18,05,50,17.40
2015,07,18,05,51,17.40
2015,07,18,05,52,17.40
2015,07,18,05,53,17.40
2015,07,18,05,54,17.40
2015,07,18,05,55,17.40
2015,07,18,05,56,17.40
2015,07,18,05,57,17.40
2015,07,18,05,58,17.40
2015,07,18,05,59,17.40
2015,07,18,06,00,17.40
2015,07,18,06,01,17.40
2015,07,18,06,02,17.40
2015,07,18,06,03,17.40
2015,07,18,06,04,17.40
2015,07,18,06,05,17.40
2015,07,18,06,06,17.40
2015,07,18,06,07,17.40
2015,07,18,06,08,17.40
2015,07,18,06,09,17.40
2015,07,18,06,10,17.40
2015,07,18,06,11,17.40
2015,07,18,06,12,17.40
2015,07,18,06,13,17.40
2015,07,18,06,14,17.40
2015,07,18,06,15,17.40
2015,07,18,06,16,17.40
2015,07,18,06,17,17.40
2015,07,18,06,18,17.40
2015,07,18,06,19,17.40
2015,07,18,06,20,17.40
2015,07,18,06,21,17.40
2015,07,18,06,22,17.40
2015,07,18,06,23,17.50
2015,07,18,06,24,17.50
2015,07,18,06,25,17.50
2015,07,18,06,26,17.50
2015,07,18,06,27,17.50
2015,07,18,06,28,17.50
2015,07,18,06,29,17.50
2015,07,18,06,30,17.50
2015,07,18,06,31,17.50
2015,07,18,06,32,17.50
2015,07,18,06,33,17.50
2015,07,18,06,34,17.50
2015,07,18,06,35,17.50
2015,07,18,06,36,17.50
2015,07,18,06,37,17.50
2015,07,18,06,38,17.60
2015,07,18,06,39,17.60
2015,07,18,06,40,17.60
2015,07,18,06,41,17.60
2015,07,18,06,42,17.60
2015,07,18,06,43,17.60
2015,07,18,06,44,17.60
2015,07,18,06,45,17.70
2015,07,18,06,46,17.70
2015,07,18,06,47,17.70
2015,07,18,06,48,17.70
2015,07,18,06,49,17.70
2015,07,18,06,50,17.70
2015,07,18,06,51,17.70
2015,07,18,06,52,17.70
2015,07,18,06,53,17.70
2015,07,18,06,54,17.80
2015,07,18,06,55,17.80
2015,07,18,06,56,17.80
2015,07,18,06,57,17.80
2015,07,18,06,58,17.80
2015,07,18,06,59,17.80
2015,07,18,07,00,17.80
2015,07,18,07,01,17.80
2015,07,18,07,02,17.90
2015,07,18,07,03,17.90
2015,07,18,07,04,17.90
2015,07,18,07,05,17.90
2015,07,18,07,06,17.90
2015,07,18,07,07,17.90
2015,07,18,07,08,17.90
2015,07,18,07,09,18.00
2015,07,18,07,10,18.00
2015,07,18,07,11,18.00
2015,07,18,07,12,18.00
2015,07,18,07,13,18.00
2015,07,18,07,14,18.00
2015,07,18,07,15,18.00
2015,07,18,07,16,18.10
2015,07,18,07,17,18.10
2015,07,18,07,18,18.10
2015,07,18,07,19,18.10
2015,07,18,07,20,18.10
2015,07,18,07,21,18.10
2015,07,18,07,22,18.10
2015,07,18,07,23,18.10
2015,07,18,07,24,18.10
2015,07,18,07,25,18.10
2015,07,18,07,26,18.10
2015,07,18,07,27,18.10
2015,07,18,07,28,18.20
2015,07,18,07,29,18.20
2015,07,18,07,30,18.20
2015,07,18,07,31,18.20
2015,07,18,07,32,18.20
2015,07,18,07,33,18.20
2015,07,18,07,34,18.30
2015,07,18,07,35,18.30
2015,07,18,07,36,18.30
2015,07,18,07,37,18.30
2015,07,18,07,38,18.30
2015,07,18,07,39,18.40
2015,07,18,07,40,18.40
2015,07,18,07,41,18.40
2015,07,18,07,42,18.40
2015,07,18,07,43,18.40
2015,07,18,07,44,18.50
2015,07,18,07,45,18.50
2015,07,18,07,46,18.50
2015,07,18,07,47,18.60
2015,07,18,07,48,18.60
2015,07,18,07,49,18.60
2015,07,18,07,50,18.60
2015,07,18,07,51,18.60
2015,07,18,07,52,18.60
2015,07,18,07,53,18.60
2015,07,18,07,54,18.60
2015,07,18,07,55,18.60
2015,07,18,07,56,18.70
2015,07,18,07,57,18.70
2015,07,18,07,58,18.70
2015,07,18,07,59,18.80
2015,07,18,08,00,18.80
2015,07,18,08,01,18.80
2015,07,18,08,02,18.80
2015,07,18,08,03,18.90
2015,07,18,08,04,18.90
2015,07,18,08,05,19.00
2015,07,18,08,06,19.00
2015,07,18,08,07,19.10
2015,07,18,08,08,19.10
2015,07,18,08,09,19.10
2015,07,18,08,10,19.20
2015,07,18,08,11,19.20
2015,07,18,08,12,19.20
2015,07,18,08,13,19.20
2015,07,18,08,14,19.20
2015,07,18,08,15,19.20
2015,07,18,08,16,19.20
2015,07,18,08,17,19.20
2015,07,18,08,18,19.20
2015,07,18,08,19,19.20
2015,07,18,08,20,19.20
2015,07,18,08,21,19.20
2015,07,18,08,22,19.20
2015,07,18,08,23,19.20
2015,07,18,08,24,19.30
2015,07,18,08,25,19.30
2015,07,18,08,26,19.30
2015,07,18,08,27,19.30
2015,07,18,08,28,19.30
2015,07,18,08,29,19.30
2015,07,18,08,30,19.30
2015,07,18,08,31,19.40
2015,07,18,08,32,19.40
2015,07,18,08,33,19.40
2015,07,18,08,34,19.50
2015,07,18,08,35,19.50
2015,07,18,08,36,19.60
2015,07,18,08,37,19.60
2015,07,18,08,38,19.70
2015,07,18,08,39,19.70
2015,07,18,08,40,19.70
2015,07,18,08,41,19.70
2015,07,18,08,42,19.80
2015,07,18,08,43,19.80
2015,07,18,08,44,19.80
2015,07,18,08,45,19.80
2015,07,18,08,46,19.90
2015,07,18,08,47,19.80
2015,07,18,08,48,19.80
2015,07,18,08,49,19.80
2015,07,18,08,50,19.80
2015,07,18,08,51,19.80
2015,07,18,08,52,19.80
2015,07,18,08,53,19.80
2015,07,18,08,54,19.80
2015,07,18,08,55,19.80
2015,07,18,08,56,19.80
2015,07,18,08,57,19.80
2015,07,18,08,58,19.80
2015,07,18,08,59,19.80
2015,07,18,09,00,19.80
2015,07,18,09,01,19.80
2015,07,18,09,02,19.90
2015,07,18,09,03,20.00
2015,07,18,09,04,20.00
2015,07,18,09,05,20.00
2015,07,18,09,06,20.00
2015,07,18,09,07,20.00
2015,07,18,09,08,20.00
2015,07,18,09,09,20.00
2015,07,18,09,10,20.00
2015,07,18,09,11,20.00
2015,07,18,09,12,20.00
2015,07,18,09,13,20.00
2015,07,18,09,14,20.00
2015,07,18,09,15,20.00
2015,07,18,09,16,20.00
2015,07,18,09,17,19.90
2015,07,18,09,18,19.90
2015,07,18,09,19,19.90
2015,07,18,09,20,20.00
2015,07,18,09,21,20.00
2015,07,18,09,22,20.10
2015,07,18,09,23,20.10
2015,07,18,09,24,20.10
2015,07,18,09,25,20.10
2015,07,18,09,26,20.10
2015,07,18,09,27,20.10
2015,07,18,09,28,20.10
2015,07,18,09,29,20.20
2015,07,18,09,30,20.20
2015,07,18,09,31,20.20
2015,07,18,09,32,20.20
2015,07,18,09,33,20.20
2015,07,18,09,34,20.30
2015,07,18,09,35,20.30
2015,07,18,09,36,20.30
2015,07,18,09,37,20.30
2015,07,18,09,38,20.30
2015,07,18,09,39,20.40
2015,07,18,09,40,20.40
2015,07,18,09,41,20.50
2015,07,18,09,42,20.50
2015,07,18,09,43,20.60
2015,07,18,09,44,20.60
2015,07,18,09,45,20.70
2015,07,18,09,46,20.70
2015,07,18,09,47,20.70
2015,07,18,09,48,20.70
2015,07,18,09,49,20.70
2015,07,18,09,50,20.70
2015,07,18,09,51,20.70
2015,07,18,09,52,20.70
2015,07,18,09,53,20.80
2015,07,18,09,54,20.80
2015,07,18,09,55,20.80
2015,07,18,09,56,20.80
2015,07,18,09,57,20.80
2015,07,18,09,58,20.80
2015,07,18,09,59,20.80
2015,07,18,10,00,20.80
2015,07,18,10,01,20.80
2015,07,18,10,02,20.90
2015,07,18,10,03,20.90
2015,07,18,10,04,20.90
2015,07,18,10,05,20.90
2015,07,18,10,06,20.90
2015,07,18,10,07,21.00
2015,07,18,10,08,21.00
2015,07,18,10,09,21.10
2015,07,18,10,10,21.10
2015,07,18,10,11,21.10
2015,07,18,10,12,21.20
2015,07,18,10,13,21.20
2015,07,18,10,14,21.20
2015,07,18,10,15,21.20
2015,07,18,10,16,21.30
2015,07,18,10,17,21.30
2015,07,18,10,18,21.30
2015,07,18,10,19,21.30
2015,07,18,10,20,21.40
2015,07,18,10,21,21.40
2015,07,18,10,22,21.50
2015,07,18,10,23,21.60
2015,07,18,10,24,21.70
2015,07,18,10,25,21.70
2015,07,18,10,26,21.70
2015,07,18,10,27,21.70
2015,07,18,10,28,21.70
2015,07,18,10,29,21.70
2015,07,18,10,30,21.80
2015,07,18,10,31,21.80
2015,07,18,10,32,21.80
2015,07,18,10,33,21.80
2015,07,18,10,34,21.80
2015,07,18,10,35,21.80
2015,07,18,10,36,21.90
2015,07,18,10,37,21.90
2015,07,18,10,38,21.90
2015,07,18,10,39,22.00
2015,07,18,10,40,22.00
2015,07,18,10,41,22.00
2015,07,18,10,42,22.00
2015,07,18,10,43,22.00
2015,07,18,10,44,22.00
2015,07,18,10,45,22.00
2015,07,18,10,46,22.00
2015,07,18,10,47,22.00
2015,07,18,10,48,22.00
2015,07,18,10,49,21.90
2015,07,18,10,50,21.90
2015,07,18,10,51,21.90
2015,07,18,10,52,21.90
2015,07,18,10,53,21.90
2015,07,18,10,54,21.90
2015,07,18,10,55,22.00
2015,07,18,10,56,22.10
2015,07,18,10,57,22.10
2015,07,18,10,58,22.20
2015,07,18,10,59,22.20
2015,07,18,11,00,22.30
2015,07,18,11,01,22.30
2015,07,18,11,02,22.30
2015,07,18,11,03,22.30
2015,07,18,11,04,22.30
2015,07,18,11,05,22.30
2015,07,18,11,06,22.30
2015,07,18,11,07,22.20
2015,07,18,11,08,22.20
2015,07,18,11,09,22.20
2015,07,18,11,10,22.20
2015,07,18,11,11,22.30
2015,07,18,11,12,22.30
2015,07,18,11,13,22.40
2015,07,18,11,14,22.40
2015,07,18,11,15,22.40
2015,07,18,11,16,22.50
2015,07,18,11,17,22.50
2015,07,18,11,18,22.50
2015,07,18,11,19,22.60
2015,07,18,11,20,22.70
2015,07,18,11,21,22.70
2015,07,18,11,22,22.80
2015,07,18,11,23,22.80
2015,07,18,11,24,22.70
2015,07,18,11,25,22.70
2015,07,18,11,26,22.70
2015,07,18,11,27,22.80
2015,07,18,11,28,22.80
2015,07,18,11,29,22.90
2015,07,18,11,30,22.90
2015,07,18,11,31,23.00
2015,07,18,11,32,23.00
2015,07,18,11,33,23.00
2015,07,18,11,34,23.00
2015,07,18,11,35,23.00
2015,07,18,11,36,23.00
2015,07,18,11,37,23.10
2015,07,18,11,38,23.20
2015,07,18,11,39,23.30
2015,07,18,11,40,23.20
2015,07,18,11,41,23.20
2015,07,18,11,42,23.20
2015,07,18,11,43,23.20
2015,07,18,11,44,23.30
2015,07,18,11,45,23.30
2015,07,18,11,46,23.30
2015,07,18,11,47,23.30
2015,07,18,11,48,23.30
2015,07,18,11,49,23.20
2015,07,18,11,50,23.20
2015,07,18,11,51,23.20
2015,07,18,11,52,23.20
2015,07,18,11,53,23.30
2015,07,18,11,54,23.40
2015,07,18,11,55,23.40
2015,07,18,11,56,23.40
2015,07,18,11,57,23.50
2015,07,18,11,58,23.60
2015,07,18,11,59,23.70
2015,07,18,12,00,23.80
2015,07,18,12,01,23.80
2015,07,18,12,02,23.90
2015,07,18,12,03,24.00
2015,07,18,12,04,24.10
2015,07,18,12,05,24.10
2015,07,18,12,06,24.10
2015,07,18,12,07,24.10
2015,07,18,12,08,24.10
2015,07,18,12,09,24.20
2015,07,18,12,10,24.20
2015,07,18,12,11,24.30
2015,07,18,12,12,24.40
2015,07,18,12,13,24.50
2015,07,18,12,14,24.60
2015,07,18,12,15,24.60
2015,07,18,12,16,24.70
2015,07,18,12,17,24.70
2015,07,18,12,18,24.70
2015,07,18,12,19,24.60
2015,07,18,12,20,24.60
2015,07,18,12,21,24.60
2015,07,18,12,22,24.60
2015,07,18,12,23,24.60
2015,07,18,12,24,24.70
2015,07,18,12,25,24.70
2015,07,18,12,26,24.80
2015,07,18,12,27,24.80
2015,07,18,12,28,24.90
2015,07,18,12,29,24.90
2015,07,18,12,30,24.80
2015,07,18,12,31,24.80
2015,07,18,12,32,24.80
2015,07,18,12,33,24.80
2015,07,18,12,34,24.80
2015,07,18,12,35,24.80
2015,07,18,12,36,24.80
2015,07,18,12,37,24.80
2015,07,18,12,38,24.80
2015,07,18,12,39,24.80
2015,07,18,12,40,24.90
2015,07,18,12,41,25.00
2015,07,18,12,42,25.00
2015,07,18,12,43,25.00
2015,07,18,12,44,25.00
2015,07,18,12,45,25.00
2015,07,18,12,46,25.00
2015,07,18,12,47,25.10
2015,07,18,12,48,25.10
2015,07,18,12,49,25.10
2015,07,18,12,50,25.20
2015,07,18,12,51,25.20
2015,07,18,12,52,25.30
2015,07,18,12,53,25.30
2015,07,18,12,54,25.40
2015,07,18,12,55,25.40
2015,07,18,12,56,25.50
2015,07,18,12,57,25.50
2015,07,18,12,58,25.70
2015,07,18,12,59,25.80
2015,07,18,13,00,25.80
2015,07,18,13,01,25.90
2015,07,18,13,02,25.90
2015,07,18,13,03,25.90
2015,07,18,13,04,25.90
2015,07,18,13,05,25.90
2015,07,18,13,06,25.90
2015,07,18,13,07,25.90
2015,07,18,13,08,25.90
2015,07,18,13,09,26.00
2015,07,18,13,10,26.00
2015,07,18,13,11,25.90
2015,07,18,13,12,25.80
2015,07,18,13,13,25.80
2015,07,18,13,14,25.80
2015,07,18,13,15,25.70
2015,07,18,13,16,25.80
2015,07,18,13,17,25.80
2015,07,18,13,18,25.90
2015,07,18,13,19,26.00
2015,07,18,13,20,26.10
2015,07,18,13,21,26.30
2015,07,18,13,22,26.40
2015,07,18,13,23,26.50
2015,07,18,13,24,26.60
2015,07,18,13,25,26.60
2015,07,18,13,26,26.70
2015,07,18,13,27,26.70
2015,07,18,13,28,26.80
2015,07,18,13,29,26.70
2015,07,18,13,30,26.70
2015,07,18,13,31,26.70
2015,07,18,13,32,26.80
2015,07,18,13,33,26.80
2015,07,18,13,34,26.80
2015,07,18,13,35,26.80
2015,07,18,13,36,26.70
2015,07,18,13,37,26.60
2015,07,18,13,38,26.60
2015,07,18,13,39,26.60
2015,07,18,13,40,26.60
2015,07,18,13,41,26.50
2015,07,18,13,42,26.40
2015,07,18,13,43,26.40
2015,07,18,13,44,26.20
2015,07,18,13,45,26.10
2015,07,18,13,46,26.00
2015,07,18,13,47,25.90
2015,07,18,13,48,25.90
2015,07,18,13,49,25.90
2015,07,18,13,50,25.90
2015,07,18,13,51,26.00
2015,07,18,13,52,26.10
2015,07,18,13,53,26.10
2015,07,18,13,54,26.10
2015,07,18,13,55,26.20
2015,07,18,13,56,26.20
2015,07,18,13,57,26.10
2015,07,18,13,58,26.10
2015,07,18,13,59,26.00
2015,07,18,14,00,26.10
2015,07,18,14,01,26.20
2015,07,18,14,02,26.30
2015,07,18,14,03,26.50
2015,07,18,14,04,26.70
2015,07,18,14,05,26.90
2015,07,18,14,06,27.00
2015,07,18,14,07,27.10
2015,07,18,14,08,27.00
2015,07,18,14,09,27.00
2015,07,18,14,10,26.90
2015,07,18,14,11,26.90
2015,07,18,14,12,26.80
2015,07,18,14,13,26.80
2015,07,18,14,14,26.80
2015,07,18,14,15,26.80
2015,07,18,14,16,26.90
2015,07,18,14,17,26.90
2015,07,18,14,18,27.00
2015,07,18,14,19,27.00
2015,07,18,14,20,26.90
2015,07,18,14,21,26.90
2015,07,18,14,22,26.90
2015,07,18,14,23,26.80
2015,07,18,14,24,26.80
2015,07,18,14,25,26.90
2015,07,18,14,26,26.90
2015,07,18,14,27,26.80
2015,07,18,14,28,26.80
2015,07,18,14,29,26.80
2015,07,18,14,30,26.80
2015,07,18,14,31,26.90
2015,07,18,14,32,26.90
2015,07,18,14,33,26.90
2015,07,18,14,34,26.90
2015,07,18,14,35,26.80
2015,07,18,14,36,26.80
2015,07,18,14,37,26.80
2015,07,18,14,38,26.60
2015,07,18,14,39,26.50
2015,07,18,14,40,26.30
2015,07,18,14,41,26.10
2015,07,18,14,42,25.90
2015,07,18,14,43,25.90
2015,07,18,14,44,25.90
2015,07,18,14,45,25.90
2015,07,18,14,46,26.00
2015,07,18,14,47,26.00
2015,07,18,14,48,26.20
2015,07,18,14,49,26.30
2015,07,18,14,50,26.40
2015,07,18,14,51,26.60
2015,07,18,14,52,26.60
2015,07,18,14,53,26.70
2015,07,18,14,54,26.70
2015,07,18,14,55,26.70
2015,07,18,14,56,26.70
2015,07,18,14,57,26.80
2015,07,18,14,58,26.80
2015,07,18,14,59,26.80
2015,07,18,15,00,26.80
2015,07,18,15,01,26.90
2015,07,18,15,02,27.00
2015,07,18,15,03,27.00
2015,07,18,15,04,27.10
2015,07,18,15,05,27.10
2015,07,18,15,06,27.20
2015,07,18,15,07,27.30
2015,07,18,15,08,27.30
2015,07,18,15,09,27.30
2015,07,18,15,10,27.30
2015,07,18,15,11,27.20
2015,07,18,15,12,27.20
2015,07,18,15,13,27.20
2015,07,18,15,14,27.20
2015,07,18,15,15,27.20
2015,07,18,15,16,27.30
2015,07,18,15,17,27.40
2015,07,18,15,18,27.50
2015,07,18,15,19,27.60
2015,07,18,15,20,27.60
2015,07,18,15,21,27.60
2015,07,18,15,22,27.60
2015,07,18,15,23,27.50
2015,07,18,15,24,27.50
2015,07,18,15,25,27.40
2015,07,18,15,26,27.30
2015,07,18,15,27,27.30
2015,07,18,15,28,27.20
2015,07,18,15,29,27.10
2015,07,18,15,30,27.10
2015,07,18,15,31,27.10
2015,07,18,15,32,27.00
2015,07,18,15,33,27.00
2015,07,18,15,34,27.00
2015,07,18,15,35,27.00
2015,07,18,15,36,27.00
2015,07,18,15,37,27.10
2015,07,18,15,38,27.10
2015,07,18,15,39,27.20
2015,07,18,15,40,27.30
2015,07,18,15,41,27.30
2015,07,18,15,42,27.40
2015,07,18,15,43,27.50
2015,07,18,15,44,27.50
2015,07,18,15,45,27.60
2015,07,18,15,46,27.50
2015,07,18,15,47,27.50
2015,07,18,15,48,27.50
2015,07,18,15,49,27.50
2015,07,18,15,50,27.60
2015,07,18,15,51,27.60
2015,07,18,15,52,27.70
2015,07,18,15,53,27.80
2015,07,18,15,54,27.90
2015,07,18,15,55,27.90
2015,07,18,15,56,28.00
2015,07,18,15,57,28.10
2015,07,18,15,58,28.20
2015,07,18,15,59,28.30
2015,07,18,16,00,28.50
2015,07,18,16,01,28.70
2015,07,18,16,02,28.90
2015,07,18,16,03,29.10
2015,07,18,16,04,29.20
2015,07,18,16,05,29.30
2015,07,18,16,06,29.40
2015,07,18,16,07,29.50
2015,07,18,16,08,29.60
2015,07,18,16,09,29.70
2015,07,18,16,10,29.70
2015,07,18,16,11,29.60
2015,07,18,16,12,29.60
2015,07,18,16,13,29.50
2015,07,18,16,14,29.50
2015,07,18,16,15,29.50
2015,07,18,16,16,29.60
2015,07,18,16,17,29.60
2015,07,18,16,18,29.80
2015,07,18,16,19,29.90
2015,07,18,16,20,29.90
2015,07,18,16,21,29.90
2015,07,18,16,22,29.90
2015,07,18,16,23,30.00
2015,07,18,16,24,30.10
2015,07,18,16,25,30.20
2015,07,18,16,26,30.30
2015,07,18,16,27,30.40
2015,07,18,16,28,30.40
2015,07,18,16,29,30.40
2015,07,18,16,30,30.40
2015,07,18,16,31,30.40
2015,07,18,16,32,30.40
2015,07,18,16,33,30.30
2015,07,18,16,34,30.20
2015,07,18,16,35,30.00
2015,07,18,16,36,29.90
2015,07,18,16,37,29.90
2015,07,18,16,38,29.90
2015,07,18,16,39,29.80
2015,07,18,16,40,29.90
2015,07,18,16,41,29.90
2015,07,18,16,42,29.90
2015,07,18,16,43,29.90
2015,07,18,16,44,30.00
2015,07,18,16,45,30.10
2015,07,18,16,46,30.20
2015,07,18,16,47,30.20
2015,07,18,16,48,30.20
2015,07,18,16,49,30.10
2015,07,18,16,50,30.00
2015,07,18,16,51,30.00
2015,07,18,16,52,30.00
2015,07,18,16,53,29.90
2015,07,18,16,54,29.90
2015,07,18,16,55,29.90
2015,07,18,16,56,29.90
2015,07,18,16,57,30.00
2015,07,18,16,58,30.00
2015,07,18,16,59,30.10
2015,07,18,17,00,30.10
2015,07,18,17,01,30.10
2015,07,18,17,02,30.10
2015,07,18,17,03,30.10
2015,07,18,17,04,30.10
2015,07,18,17,05,30.10
2015,07,18,17,06,30.10
2015,07,18,17,07,30.00
2015,07,18,17,08,30.00
2015,07,18,17,09,30.00
2015,07,18,17,10,30.10
2015,07,18,17,11,30.10
2015,07,18,17,12,30.10
2015,07,18,17,13,30.10
2015,07,18,17,14,30.10
2015,07,18,17,15,30.00
2015,07,18,17,16,30.00
2015,07,18,17,17,30.00
2015,07,18,17,18,30.00
2015,07,18,17,19,30.00